Wind_Speed
5 5 6 7 7 8 8 8 8 8 8 8 8 8 8 9 9 9 9 9 9 10 10 11 12 13 13 13 13 13 13 13 13 13 14 15 16 17 17 17 18 18 18 17 17 16 16 15 15 16 16 17 17 18 18 18 17 17 17 17 17 16 17 17 17 17 17 17 17
2 3 4 5 5 6 6 6 6 6 7 7 7 6 7 7 7 7 7 7 7 8 8 8 9 9 9 10 10 10 11 11 12 13 14 15 16 16 17 17 16 16 16 16 15 15 15 15 15 16 16 17 17 18 18 18 17 16 16 15 15 15 15 15 15 15 15 15 15
1 2 2 3 4 4 5 5 6 6 6 6 6 6 6 6 6 6 6 6 6 6 6 6 6 6 6 7 7 8 9 10 11 12 13 14 15 15 16 16 16 15 14 14 14 15 16 16 17 16 16 16 17 17 17 16 15 14 13 13 13 13 13 13 14 14 14 14 13
3 2 2 2 3 3 4 4 5 5 5 5 5 5 5 5 5 5 4 5 5 5 5 5 5 4 5 5 6 7 8 9 10 10 11 12 13 13 14 15 14 14 13 14 14 15 16 16 15 15 15 15 15 15 15 14 14 13 12 12 12 12 13 13 14 14 13 12 12
4 3 3 3 3 3 3 3 4 4 4 5 5 5 5 5 4 4 4 4 5 5 5 4 4 5 5 5 6 7 7 8 8 9 9 10 10 11 12 12 12 12 11 11 12 12 12 12 12 13 13 13 13 12 12 13 12 12 13 13 13 14 14 14 14 13 12 11 11
4 4 3 3 3 3 3 3 3 4 4 4 4 4 4 4 4 4 4 4 4 4 5 5 5 5 6 6 7 7 8 8 8 8 9 9 9 9 9 9 9 8 8 8 8 8 9 9 10 11 11 11 11 11 12 12 12 12 13 13 13 13 13 13 12 11 11 11 12
4 4 4 3 3 3 3 3 3 3 3 4 4 4 4 4 5 5 5 5 5 5 5 5 6 6 7 7 8 8 9 9 9 9 9 9 9 8 7 7 7 7 8 8 8 8 8 8 9 10 10 11 11 11 11 10 10 10 10 11 11 10 10 10 10 11 11 11 11
4 4 4 4 3 3 3 3 3 3 3 4 4 4 4 5 5 5 5 5 6 7 7 7 7 8 8 8 9 9 10 10 10 10 10 9 9 9 8 8 8 8 8 7 6 6 7 7 8 9 9 10 10 10 9 8 8 8 9 9 9 9 9 9 10 10 9 8 8
4 4 4 4 4 4 4 3 3 3 3 3 4 4 5 5 6 7 7 8 9 9 10 10 10 10 10 10 10 10 9 9 9 9 8 8 8 8 8 7 7 7 6 5 4 4 4 5 5 7 8 8 9 8 8 8 9 9 9 9 9 10 11 10 9 7 6 5 6
4 4 4 4 4 4 4 4 4 3 4 4 5 6 7 7 8 9 9 10 10 10 10 9 9 8 8 9 9 8 7 7 6 6 6 6 6 6 6 5 5 4 3 2 2 2 3 4 5 6 8 9 9 9 10 11 10 10 10 9 9 8 8 8 5 4 3 4 4
4 4 4 4 4 4 4 4 4 5 5 6 7 8 8 9 9 10 10 9 9 9 8 7 7 6 6 6 6 6 6 5 5 6 6 6 5 5 4 3 3 3 3 1 2 3 5 5 6 7 9 10 11 11 11 12 11 11 10 9 8 6 4 3 3 3 4 5 5
4 4 4 4 4 4 4 4 5 6 7 7 8 8 8 8 9 8 8 8 8 8 8 7 6 5 5 5 5 4 4 3 3 4 4 3 2 1 0 1 3 4 4 4 4 6 7 8 8 9 10 10 12 12 11 11 10 9 9 7 6 4 3 3 5 6 6 6 6
4 4 4 4 4 4 4 4 5 6 7 8 8 8 8 8 8 7 6 5 6 6 6 6 5 4 3 2 2 1 1 1 2 2 2 2 3 4 4 5 4 4 4 5 6 7 9 9 9 9 10 10 10 10 10 9 8 8 8 7 5 4 5 7 8 8 8 8 8
4 4 4 4 3 3 3 4 5 6 7 7 7 7 7 8 7 6 5 4 4 4 4 3 3 2 2 2 2 2 2 2 2 2 2 3 3 3 3 3 3 3 4 5 6 8 9 9 9 8 8 8 8 8 8 7 7 8 8 8 8 9 9 10 10 10 10 10 10
4 4 4 3 3 2 3 4 5 6 6 6 6 5 5 5 5 5 4 3 3 2 2 2 3 2 2 2 2 3 3 3 3 4 4 4 3 2 1 0 1 3 4 5 6 7 8 8 7 7 6 6 6 7 7 8 9 9 10 11 12 13 13 13 12 11 11 11 11
4 4 4 3 3 3 3 3 4 5 5 5 4 3 3 3 3 2 2 2 2 1 1 2 2 2 3 3 2 2 3 2 2 3 3 3 2 2 2 2 2 3 4 5 6 7 6 6 5 5 5 6 7 8 9 10 11 12 13 14 15 15 15 14 13 13 12 12 13
4 4 4 3 3 3 3 3 3 4 4 3 2 2 3 3 2 1 1 1 1 1 2 3 3 3 3 3 2 2 1 1 1 1 2 2 3 4 4 4 4 4 4 5 7 7 7 6 6 6 6 7 9 11 12 13 14 15 16 16 16 16 16 15 14 14 14 13 14
5 5 4 4 4 4 4 3 3 3 3 2 3 3 3 3 2 2 3 2 2 1 2 4 4 3 3 3 2 1 1 2 3 4 4 4 4 5 6 6 6 5 5 6 8 9 9 8 8 8 9 10 12 13 14 16 17 17 17 17 17 17 16 16 15 15 15 14 14
5 5 5 5 5 5 5 4 4 4 3 3 3 3 3 3 4 4 4 4 3 3 3 4 4 4 3 3 2 2 3 4 5 6 5 5 6 7 7 7 7 7 8 9 10 10 10 10 11 11 12 13 14 16 17 17 18 18 18 18 17 17 16 16 16 16 16 15 15
4 5 5 6 6 5 5 4 4 4 4 4 3 2 3 5 5 5 5 5 4 4 4 4 4 4 3 2 2 2 4 5 6 7 7 7 8 9 9 9 9 9 10 11 11 11 11 11 12 13 14 15 16 17 18 18 18 18 18 18 17 17 17 16 16 16 16 16 16
3 4 5 5 5 5 4 4 5 5 4 3 2 3 5 7 7 6 6 5 5 5 5 5 4 3 3 2 2 4 6 7 8 9 10 10 11 10 10 10 11 11 11 11 11 11 11 12 13 14 15 16 17 17 18 18 18 18 18 18 17 17 16 16 16 16 16 16 16
1 2 3 4 4 4 4 4 5 4 3 3 3 4 6 8 7 7 6 6 6 5 5 4 3 2 3 4 6 8 10 11 11 12 12 12 12 12 11 11 12 12 12 11 11 11 11 12 13 14 15 16 17 17 18 18 18 18 18 17 17 16 15 15 15 15 15 15 16
1 2 2 2 2 2 4 5 5 5 4 4 4 6 8 9 8 7 7 6 5 4 3 3 3 5 6 8 10 11 13 13 13 13 14 14 13 13 12 12 12 13 13 12 12 12 13 14 14 15 16 16 17 17 17 17 18 18 18 17 17 16 15 14 13 13 13 14 14
2 1 1 1 2 4 6 6 6 5 5 5 6 8 9 9 9 8 7 5 4 3 4 6 8 9 11 12 13 13 14 15 15 15 15 14 14 13 13 13 13 14 14 13 13 13 14 15 16 16 17 17 17 17 17 17 18 18 17 17 16 15 15 14 13 12 12 12 13
1 1 2 4 6 7 7 7 5 5 5 6 7 9 10 10 9 8 6 5 5 6 8 10 12 13 14 14 14 14 15 15 16 16 16 15 14 14 14 14 15 15 14 14 13 13 14 15 16 16 17 17 18 18 18 18 17 17 17 16 15 14 14 13 12 12 11 11 11
3 4 6 8 9 9 8 7 5 5 6 8 8 9 10 10 10 9 8 8 9 11 13 15 15 16 16 16 16 16 16 16 16 16 16 16 15 15 15 15 15 14 14 13 13 13 14 14 15 15 16 17 18 18 18 17 16 16 15 14 13 12 12 11 11 11 10 10 9
5 7 9 9 9 9 8 7 6 6 8 10 10 11 11 11 11 11 12 13 14 15 16 17 17 17 17 17 17 17 16 16 16 16 16 16 16 16 15 15 15 14 13 13 13 13 14 14 14 14 15 15 16 16 17 16 15 15 14 13 12 11 11 10 10 9 8 8 7
8 9 10 10 10 9 8 7 8 9 10 12 12 13 13 14 14 14 15 15 16 17 18 18 18 18 17 18 17 17 17 17 17 17 17 17 17 16 16 15 15 14 13 13 13 13 13 14 14 13 13 13 14 14 15 15 15 14 14 13 12 11 11 10 9 8 7 6 5
10 10 11 11 10 9 9 9 10 11 12 13 14 14 15 15 15 16 16 16 17 17 17 17 18 18 17 17 17 17 17 17 17 17 17 17 17 17 16 15 15 14 13 13 13 13 13 13 13 13 13 12 13 13 14 14 14 14 13 12 12 11 10 10 9 8 6 5 4
11 11 11 11 10 10 10 11 12 13 14 14 15 15 15 16 16 16 16 16 16 16 17 17 17 17 17 17 18 18 18 17 17 17 17 17 17 16 16 15 14 14 13 12 13 13 13 13 13 13 12 12 12 12 13 13 13 13 12 12 11 10 10 9 8 7 6 5 4
12 12 12 11 11 11 12 12 13 14 14 15 15 15 15 15 15 15 15 15 16 16 17 17 17 17 18 18 18 18 18 17 17 17 17 17 16 16 15 15 14 14 13 13 13 13 13 13 13 13 12 12 12 12 12 12 11 11 11 10 10 9 9 8 7 7 6 5 5
12 12 12 11 12 12 13 13 14 14 14 15 14 15 15 15 15 15 15 15 15 16 16 17 17 17 17 17 17 17 17 17 17 16 16 16 16 16 15 15 14 13 13 13 13 13 13 13 13 12 12 12 11 11 11 10 10 10 10 9 9 8 8 7 7 6 6 6 5
13 12 11 12 12 13 13 14 14 14 14 14 14 14 15 15 15 15 15 15 15 15 16 17 17 17 17 17 17 16 16 16 16 16 16 16 16 16 16 15 14 13 13 13 13 13 13 12 12 12 11 11 10 10 9 9 9 9 9 9 8 8 7 7 6 6 6 5 5
13 12 11 12 13 14 14 14 14 14 14 14 14 14 14 15 15 16 15 15 15 15 16 16 17 17 17 16 16 16 16 16 16 16 16 16 16 16 16 15 14 14 13 13 13 12 12 12 11 11 10 10 9 9 9 9 9 8 8 8 7 7 7 6 6 6 6 6 5
12 12 12 13 14 14 14 15 15 15 14 14 14 14 14 14 15 15 14 14 14 15 16 16 16 16 16 16 16 16 16 16 16 16 16 16 17 17 17 16 15 14 13 13 13 12 11 11 11 10 10 10 9 9 9 9 9 9 8 8 8 7 7 7 7 7 7 6 6
12 12 13 14 14 15 15 15 15 15 15 14 14 14 14 14 13 13 12 13 14 15 15 15 15 15 15 15 15 15 15 15 15 15 16 16 17 17 17 17 15 14 13 12 12 11 11 11 10 10 10 10 10 9 9 9 10 9 9 9 9 9 9 9 9 9 9 8 7
12 12 13 14 14 15 15 16 16 16 15 15 14 14 14 13 12 11 11 12 13 14 15 15 15 15 15 15 15 14 14 14 15 15 16 16 17 18 18 17 16 14 12 12 11 11 11 11 10 10 10 10 10 10 10 10 10 10 10 10 10 10 10 10 11 10 10 9 8
12 13 13 14 14 15 15 16 16 16 15 15 14 13 12 11 11 11 11 11 13 15 15 15 15 15 14 14 14 14 14 14 15 16 16 17 17 17 17 17 16 14 12 11 11 11 11 11 11 10 10 10 10 10 10 11 11 11 10 10 10 10 10 10 9 9 9 8 8
13 13 13 14 14 15 16 16 16 16 15 14 13 12 11 10 10 10 9 10 12 14 15 15 15 14 14 14 15 15 16 16 16 16 16 16 16 16 16 16 15 14 13 11 11 11 11 11 11 11 11 11 10 10 10 10 10 10 10 10 9 9 8 8 8 7 7 7 7
13 13 13 14 14 15 16 16 16 15 13 12 12 11 10 10 9 9 8 9 11 13 14 15 14 14 15 15 16 17 17 17 17 16 16 15 15 14 14 14 14 13 12 11 9 9 10 10 11 11 10 10 10 9 9 8 8 9 8 8 8 7 7 6 6 5 5 5 5
13 13 13 14 14 15 15 16 15 13 11 10 10 10 10 10 9 8 8 9 11 13 14 15 15 16 16 16 17 17 17 17 16 15 15 14 14 13 13 12 12 12 11 10 8 8 8 8 9 9 10 9 9 8 7 7 7 7 7 7 6 6 5 5 4 4 3 3 3
Wind_Direction
246 247 245 242 240 239 237 236 236 235 234 235 237 239 241 242 244 246 250 253 255 257 261 263 264 265 264 262 257 251 244 238 232 227 224 222 223 224 225 224 223 222 222 224 227 230 235 239 240 238 236 235 237 241 244 245 246 248 251 253 252 250 248 245 244 243 241 238 236
234 237 238 236 234 232 229 225 223 223 223 225 226 228 231 231 233 237 241 245 247 251 255 257 259 260 258 256 251 244 237 231 226 222 220 220 220 220 220 220 220 221 223 227 231 235 241 247 248 244 238 235 237 241 244 245 245 245 245 245 245 244 243 240 239 237 235 233 235
176 198 214 221 222 223 220 215 214 213 213 214 217 218 220 221 223 225 229 233 237 238 241 243 245 245 243 240 236 230 225 221 220 221 220 219 218 216 215 214 216 219 225 234 240 243 246 249 250 246 241 238 240 242 244 243 240 237 234 233 234 234 233 229 228 226 225 225 231
144 151 163 182 198 205 207 209 210 209 209 209 210 211 211 212 214 214 214 215 213 214 216 218 216 214 212 214 212 210 209 209 212 214 216 215 214 212 211 213 216 222 230 237 243 243 241 241 242 241 240 238 238 236 235 231 227 222 219 219 220 220 219 217 216 215 215 218 223
137 138 141 150 163 176 187 196 200 201 202 205 205 203 202 200 197 193 191 191 192 193 194 190 185 181 181 185 186 187 189 192 195 199 202 203 204 205 209 214 220 224 226 228 229 228 228 228 229 228 227 226 223 218 214 211 209 208 207 208 208 209 210 209 209 211 215 222 225
141 140 140 141 147 155 163 174 183 186 189 194 194 191 187 183 177 174 172 170 173 173 170 168 165 162 163 165 167 167 168 169 172 175 178 180 184 191 201 208 212 209 204 198 197 200 205 208 208 206 203 201 198 194 191 192 195 198 198 198 199 201 204 206 209 216 226 232 230
151 149 146 145 148 152 157 162 171 178 182 184 183 179 176 173 168 164 162 161 160 155 151 151 148 148 149 151 151 150 149 148 148 150 152 152 156 163 168 173 175 171 166 162 162 165 173 181 183 181 181 184 183 180 179 183 191 195 196 194 198 201 204 209 219 226 229 227 220
160 155 151 149 151 154 155 158 165 172 176 176 170 167 164 161 156 153 149 145 139 135 131 127 125 127 131 132 130 127 125 124 124 125 126 128 131 134 136 138 139 137 136 137 141 147 156 166 172 174 176 181 182 181 183 191 200 207 208 206 210 213 215 218 225 227 224 216 205
166 161 158 155 154 153 153 153 157 159 158 153 146 140 136 134 134 133 129 124 121 119 117 113 111 113 115 116 115 113 111 109 106 105 106 110 114 116 119 120 118 115 114 118 128 144 160 171 177 180 183 189 191 195 201 208 211 213 213 211 211 218 223 225 226 222 210 193 186
168 163 160 156 151 151 150 148 145 140 131 124 120 117 116 116 118 117 115 114 116 116 113 109 109 110 111 112 112 110 107 105 99 96 97 102 104 106 105 102 93 83 83 102 142 179 192 197 193 192 195 200 200 203 207 211 209 206 204 204 204 210 219 227 226 206 178 169 171
167 161 156 150 145 145 146 141 133 127 121 116 114 113 111 109 108 109 111 116 121 120 114 110 111 113 118 120 119 116 112 108 102 100 100 101 101 97 89 75 46 16 357 320 235 215 212 210 203 198 198 202 202 201 203 206 205 199 192 191 198 203 207 212 184 157 150 154 159
162 157 151 145 140 140 139 133 126 122 120 116 115 113 110 104 101 104 112 123 127 125 121 118 118 123 128 131 131 133 133 131 128 124 122 120 121 120 307 301 304 307 301 279 246 224 214 209 203 197 196 200 202 202 202 205 204 194 184 181 193 197 180 159 145 139 139 139 142
155 150 144 138 134 135 133 127 122 121 119 117 115 112 108 103 100 104 113 123 126 125 123 122 124 124 122 119 130 148 180 208 206 201 206 225 245 257 263 266 268 268 262 248 230 217 208 203 200 196 195 198 203 205 205 204 199 186 175 170 173 162 143 135 131 128 129 132 133
146 141 133 128 128 126 125 122 121 121 120 118 115 114 112 109 108 109 112 114 113 107 105 106 105 99 78 37 0 344 338 331 318 303 296 297 294 288 279 269 255 237 226 218 212 209 206 200 199 199 199 199 200 201 198 189 178 168 160 151 141 132 127 124 122 123 127 131 130
137 129 123 120 118 118 118 119 121 123 122 119 116 115 115 114 114 115 115 108 91 80 75 75 76 75 65 41 14 2 358 357 349 343 342 347 352 354 347 245 205 206 203 197 198 203 203 199 198 200 200 196 189 182 174 165 157 151 145 136 129 124 122 120 121 124 128 129 126
128 121 116 112 110 106 106 112 118 123 123 118 116 107 92 87 95 108 116 105 82 65 65 76 75 81 88 86 57 27 10 7 356 353 0 17 48 92 133 151 163 179 185 182 184 186 188 188 189 190 187 180 170 163 157 151 146 140 134 129 126 123 121 121 123 124 125 123 117
123 116 110 104 95 86 83 92 107 113 114 109 93 69 58 56 65 99 126 126 86 70 93 117 101 102 110 106 84 48 22 25 69 79 85 100 123 144 152 149 142 144 155 163 165 163 163 167 169 170 168 163 156 151 147 143 139 134 131 127 125 123 122 123 123 122 119 115 110
118 110 101 89 74 62 59 65 84 95 93 74 47 47 60 74 103 133 148 145 119 109 126 132 118 117 124 121 108 95 128 159 148 141 139 145 158 161 155 141 132 131 140 150 154 154 155 156 156 155 152 149 145 143 140 137 134 131 128 126 124 123 123 122 121 117 113 109 106
109 97 83 67 54 47 46 54 72 83 77 61 49 59 92 129 145 157 159 152 134 132 144 141 131 131 131 121 111 122 146 156 153 152 155 157 160 155 146 135 131 132 135 138 141 144 146 149 148 147 144 142 140 138 136 134 131 128 126 125 123 123 122 120 117 113 110 107 105
97 78 62 49 42 40 44 58 76 83 80 71 69 98 141 158 162 164 162 152 139 138 144 143 136 130 124 111 109 134 143 145 145 144 143 143 142 140 137 135 132 130 127 126 127 130 135 140 142 142 140 139 137 135 134 132 129 127 126 125 124 122 120 118 116 113 111 109 107
80 54 40 33 32 37 50 69 86 91 88 83 91 137 162 168 162 155 148 141 137 137 138 136 128 119 112 113 124 131 130 127 126 125 126 127 127 128 129 130 127 123 121 121 124 128 133 136 138 137 137 136 135 134 133 131 129 128 127 125 124 122 120 118 117 115 113 111 109
46 19 14 14 24 39 64 87 100 104 95 78 101 148 165 163 154 144 139 136 135 136 135 130 126 126 130 135 133 127 122 118 116 116 117 118 118 119 121 123 123 122 123 126 131 134 135 134 133 132 133 133 133 133 133 132 130 128 126 124 122 120 118 116 116 116 115 115 112
66 19 11 16 36 76 99 109 114 111 100 94 121 149 158 155 149 143 138 136 136 138 142 146 147 144 140 137 132 127 123 119 117 116 116 115 115 116 119 123 126 128 131 133 135 135 133 129 127 126 127 129 130 131 131 130 129 126 124 121 118 115 113 110 110 111 113 114 113
113 73 52 113 133 132 129 124 120 115 113 121 137 148 152 151 149 145 140 137 139 147 151 148 143 139 136 132 129 127 125 123 120 117 115 113 112 112 113 115 115 116 117 119 123 125 125 123 123 123 124 125 125 126 126 126 124 122 120 117 114 112 109 106 104 104 105 107 107
150 164 166 158 149 143 137 129 121 119 126 136 144 148 148 145 143 140 138 136 139 143 142 140 136 133 130 127 125 122 120 117 113 110 107 104 101 101 100 99 98 99 101 106 111 115 118 120 121 122 122 122 122 121 120 119 118 116 115 112 111 109 107 105 102 99 98 97 97
189 179 166 157 150 145 139 130 122 126 137 145 149 149 145 139 136 134 133 131 132 134 133 131 128 125 122 119 115 111 108 106 104 102 102 100 99 98 96 95 94 96 100 105 109 112 114 117 119 120 121 120 120 119 117 115 112 110 109 108 107 105 102 99 97 95 93 91 91
182 171 162 156 151 146 139 131 128 136 145 148 148 146 141 137 134 132 130 129 130 130 128 126 123 120 118 115 113 111 110 109 109 109 109 109 108 107 105 102 102 103 107 111 112 112 112 113 114 116 117 118 118 117 115 113 111 109 107 106 105 103 99 96 93 92 92 92 93
178 169 161 156 151 146 140 135 137 142 145 146 143 141 138 136 134 133 132 132 131 130 128 126 124 123 122 120 120 120 120 119 118 117 116 115 113 112 110 109 109 110 113 115 115 114 112 110 110 111 113 114 114 114 114 114 113 112 111 110 108 105 102 99 96 94 92 92 94
179 169 161 156 151 147 143 141 142 143 143 142 140 139 137 136 135 135 134 134 132 130 128 127 128 128 126 125 125 125 124 122 121 119 118 116 114 113 112 112 112 114 115 117 117 116 113 109 108 108 109 109 109 109 110 111 113 113 113 113 111 108 104 100 98 96 95 93 92
179 169 161 155 150 147 145 144 143 142 142 141 140 139 138 137 136 136 136 135 133 131 130 130 130 129 127 126 126 125 124 123 122 120 118 116 115 115 115 115 114 115 116 116 117 115 113 109 106 105 105 104 104 104 106 107 107 108 110 111 110 107 104 102 101 100 98 94 91
177 169 161 154 149 147 146 145 144 144 144 143 142 140 138 137 137 138 138 137 136 134 134 134 132 130 129 128 128 127 126 126 124 122 120 118 116 116 116 116 115 115 116 116 115 113 110 106 104 102 101 100 101 103 105 106 106 106 106 107 105 104 102 100 99 97 95 93 91
174 168 161 154 150 148 148 148 147 147 147 146 144 142 141 139 139 140 141 140 138 137 135 135 134 133 132 131 131 130 129 128 126 124 122 120 118 117 116 115 115 115 116 115 113 110 107 103 101 101 100 101 103 105 107 107 106 104 103 102 101 99 98 97 97 97 98 98 98
173 168 162 157 153 152 152 152 152 151 150 149 148 146 144 142 141 140 140 141 140 138 137 137 136 135 134 133 133 131 130 128 126 124 122 120 119 118 116 115 115 116 116 114 111 107 105 102 101 101 102 103 103 104 104 102 101 100 99 99 98 98 98 99 100 102 105 107 108
173 170 165 161 158 157 157 157 157 156 154 152 150 149 147 144 142 140 140 141 143 142 141 141 140 139 138 138 136 134 132 131 129 127 125 123 122 120 118 117 116 116 116 113 110 107 105 103 102 102 102 102 100 99 98 98 97 96 97 97 98 98 99 101 102 104 106 109 113
175 172 168 165 163 161 161 161 161 159 157 153 151 150 149 148 145 144 145 147 148 147 145 145 145 144 143 143 141 139 137 135 134 133 132 130 128 124 121 118 117 116 115 113 110 107 104 102 101 100 100 99 97 96 95 95 95 94 94 95 96 99 100 102 101 100 100 101 104
179 176 172 168 166 165 163 162 161 159 156 153 152 151 151 150 150 151 155 157 155 152 150 149 149 148 146 145 145 143 141 140 140 139 138 136 130 125 121 118 117 117 115 113 110 106 102 99 98 97 97 96 96 95 94 92 92 92 93 95 98 101 102 102 100 97 94 92 91
183 180 176 171 168 166 164 163 161 158 156 155 155 154 154 153 155 160 166 168 165 159 156 154 153 152 151 149 147 145 144 143 142 140 137 133 128 124 121 120 119 119 116 112 108 103 100 98 96 95 95 94 93 92 92 92 92 93 95 97 100 102 104 103 100 95 90 85 80
186 185 180 174 170 168 165 164 161 159 157 157 159 160 160 160 162 166 172 175 171 165 162 160 158 156 154 151 146 143 141 141 139 136 132 129 126 124 123 123 122 121 118 113 108 103 100 97 96 94 92 90 89 89 89 91 93 94 96 98 100 102 104 103 100 95 89 82 75
188 186 183 177 173 169 167 165 164 162 162 162 162 164 166 169 171 173 178 181 175 169 165 163 160 156 150 145 141 139 138 137 136 134 131 129 128 126 125 123 123 123 121 118 111 105 100 96 94 92 89 86 85 85 86 89 92 93 95 96 97 98 100 100 99 96 91 85 79
188 187 184 180 176 173 171 168 167 166 166 166 166 167 171 176 178 184 188 185 175 169 166 162 157 150 144 140 139 139 138 137 135 134 133 131 128 127 125 124 123 123 124 123 118 109 101 93 89 86 84 82 81 81 82 84 87 89 91 91 91 91 91 92 93 93 91 88 84
189 187 184 182 180 178 175 172 169 167 167 168 171 174 177 181 185 191 191 181 171 167 163 158 151 145 142 142 143 142 141 139 137 136 134 132 130 129 127 126 126 125 127 127 125 118 107 94 85 81 78 76 75 76 76 77 81 83 84 84 82 80 78 76 75 74 72 70 69
Height
802 802 802 802 802 802 802 802 802 802 802 803 803 803 803 803 803 804 804 804 804 804 804 804 804 804 803 803 803 804 804 804 804 805 805 806 807 807 808 809 809 810 811 812 812 812 813 814 814 814 814 814 814 815 816 816 817 818 818 819 819 820 820 821 821 821 822 822 822
802 802 802 802 802 802 802 802 802 802 802 802 802 803 803 803 803 803 803 803 803 803 803 803 803 803 803 803 803 803 803 804 804 804 805 805 806 807 807 808 809 810 810 811 811 812 812 812 813 813 813 813 814 814 815 816 816 817 817 818 818 818 819 819 820 820 821 821 822
802 802 802 802 802 802 802 802 802 802 802 802 802 802 802 802 802 802 802 802 803 803 803 803 803 803 803 803 803 803 803 803 804 804 804 805 805 806 807 807 808 809 809 810 810 811 811 811 812 812 812 812 813 814 814 815 816 816 816 817 817 818 818 819 819 820 820 820 821
802 802 802 802 802 802 802 802 802 802 802 802 802 802 802 802 802 802 802 802 802 802 802 802 802 802 802 802 802 803 803 803 803 804 804 805 805 806 806 807 807 807 808 809 809 810 810 810 811 812 812 812 813 813 814 814 815 815 816 816 817 817 817 818 818 818 819 819 820
802 802 802 802 802 802 802 802 802 802 802 802 802 802 802 802 802 802 802 802 802 802 802 802 802 802 802 802 802 802 803 803 803 804 804 804 805 805 806 806 806 806 807 807 808 809 809 809 810 811 812 812 812 813 813 814 814 814 815 816 816 817 817 817 817 818 818 819 819
802 802 802 802 802 802 802 802 802 802 802 802 802 802 802 802 802 802 802 802 802 802 802 802 802 802 803 803 803 803 803 803 803 803 804 804 805 805 805 805 806 806 807 807 808 808 808 809 810 810 811 812 812 813 813 813 814 814 814 815 815 816 816 817 817 817 818 818 818
802 802 802 802 802 802 802 802 802 802 802 802 802 802 802 802 802 802 802 802 802 802 802 803 803 803 803 803 803 803 803 803 804 804 804 804 805 805 805 806 806 806 807 807 808 808 809 809 810 810 811 812 812 813 813 813 814 814 814 815 815 816 816 816 817 817 817 817 818
802 802 802 802 802 802 802 802 802 802 802 802 802 802 802 802 802 802 802 802 802 803 803 803 803 804 804 804 804 804 804 805 805 805 805 805 805 806 806 806 807 807 807 808 808 809 809 810 810 810 811 812 812 813 813 813 814 814 815 815 815 816 816 816 816 816 817 817 817
802 802 802 802 802 802 802 802 802 802 802 802 802 802 802 802 802 802 802 802 803 803 803 804 804 804 805 805 805 805 805 806 806 806 806 806 807 807 807 807 807 807 808 808 809 810 810 810 811 811 811 812 812 813 813 813 814 814 814 815 815 815 815 816 816 816 817 817 817
802 802 802 802 802 802 802 802 802 802 802 802 802 802 802 802 803 803 803 803 803 804 804 804 805 805 805 805 805 806 806 806 806 807 807 807 807 807 807 807 808 808 808 809 810 810 810 811 811 811 812 812 812 812 813 813 813 813 814 814 814 815 815 816 816 817 817 817 818
802 802 802 802 802 802 802 802 802 802 802 802 802 802 803 803 803 803 803 804 804 804 804 805 805 805 805 805 806 806 806 806 807 807 807 807 807 807 807 807 808 808 808 809 810 810 810 811 811 811 811 812 812 812 812 812 813 813 813 814 814 815 815 816 817 817 817 817 817
802 802 802 802 802 803 802 802 802 802 802 803 803 803 803 803 803 804 804 804 804 804 804 805 805 805 805 806 806 806 806 807 807 807 807 807 807 807 807 807 808 808 808 809 809 810 810 810 810 811 811 811 812 812 812 812 813 813 814 814 814 815 816 816 816 817 817 817 818
802 802 802 803 803 803 803 803 803 803 803 803 803 803 803 804 804 804 804 804 804 804 804 805 805 805 805 805 806 806 806 807 807 807 807 807 807 807 807 807 808 808 808 809 809 810 810 810 810 810 811 811 811 812 812 812 813 813 814 814 815 815 816 816 816 817 817 817 818
802 802 803 803 803 803 803 803 803 803 803 803 803 804 804 804 804 804 804 804 804 804 805 805 805 805 805 805 806 806 806 806 806 807 807 807 807 807 807 807 807 808 808 809 809 810 810 810 810 810 811 811 811 812 812 813 813 813 814 814 815 815 816 816 817 817 817 818 818
802 802 803 803 803 803 803 803 803 803 803 804 804 804 804 804 804 804 804 804 804 805 805 805 805 805 805 805 806 806 806 806 806 806 806 806 806 807 807 807 807 808 808 808 809 809 810 810 810 810 811 811 811 812 812 813 813 813 814 814 815 815 816 816 817 817 818 818 818
802 802 803 803 803 803 803 803 803 803 804 804 804 804 804 804 804 804 805 805 805 805 805 805 805 805 805 806 806 806 806 806 806 806 806 806 806 807 807 807 807 808 808 808 809 809 809 810 810 810 811 811 811 812 812 812 813 813 814 814 815 815 816 817 817 818 818 819 819
802 802 803 803 803 803 803 803 803 803 803 804 804 804 804 804 804 804 805 805 805 805 805 805 805 805 806 806 806 806 806 806 806 806 806 806 807 807 807 807 807 808 808 808 809 809 809 810 810 810 811 811 811 812 812 813 813 814 814 815 815 816 817 817 818 818 819 819 819
802 802 802 803 803 803 803 803 803 803 803 804 804 804 804 804 804 804 805 805 805 805 805 805 805 806 806 806 806 806 806 806 806 806 806 807 807 807 807 807 808 808 808 808 809 809 809 810 810 810 811 811 812 812 812 813 814 814 815 815 816 816 817 818 818 819 819 819 819
802 802 802 802 803 803 803 803 803 803 803 804 804 804 804 804 804 805 805 805 805 805 805 805 806 806 806 806 806 806 806 806 806 806 806 807 807 807 807 807 808 808 808 808 809 809 809 810 810 811 811 811 812 812 813 813 814 815 815 816 817 817 817 818 818 819 819 820 820
802 802 802 802 803 803 803 803 803 803 803 804 804 804 804 804 804 805 805 805 805 805 806 806 806 806 806 806 806 806 806 806 806 806 806 807 807 807 807 808 808 808 808 809 809 809 810 810 811 811 811 812 812 813 813 814 815 815 816 817 817 817 818 818 819 819 820 820 820
802 802 802 802 803 803 803 803 803 803 804 804 804 804 804 804 804 805 805 805 806 806 806 806 806 806 806 806 806 806 806 806 806 806 807 807 807 807 807 808 808 808 809 809 809 810 810 811 811 812 812 812 813 813 814 815 815 816 816 817 817 818 818 819 819 819 820 820 820
801 802 802 802 803 803 803 803 803 803 804 804 804 804 804 804 805 805 805 806 806 806 806 806 806 806 806 806 806 806 806 806 806 807 807 807 807 808 808 808 808 809 809 810 810 810 811 811 812 812 812 813 813 814 815 815 816 816 817 817 818 818 819 819 819 820 820 820 821
801 802 802 802 802 803 803 803 803 803 804 804 804 804 804 804 805 805 805 806 806 806 806 806 806 806 806 806 806 806 806 807 807 807 807 807 808 808 808 809 809 809 810 810 811 811 811 812 812 812 813 813 814 814 815 816 816 817 817 818 818 819 819 819 820 820 820 821 821
801 801 802 802 802 803 803 803 803 803 804 804 804 804 804 804 805 805 805 806 806 806 806 806 806 806 806 806 806 807 807 807 807 807 808 808 808 809 809 809 810 810 810 811 811 812 812 812 812 813 813 814 814 815 816 816 817 817 817 818 818 819 819 820 820 821 821 821 821
801 801 802 802 802 802 803 803 803 803 804 804 804 804 804 804 804 805 805 805 806 806 806 806 806 806 807 807 807 807 807 807 807 808 808 808 809 809 810 810 810 811 811 812 812 812 812 813 813 813 814 814 815 816 816 817 817 817 818 818 818 819 820 820 820 821 821 821 821
801 801 802 802 802 802 803 803 803 803 803 804 804 804 804 804 804 805 805 805 805 806 806 806 807 807 807 807 808 808 808 808 808 809 809 809 810 810 811 811 811 812 812 813 813 813 813 814 814 814 814 815 815 816 816 817 817 818 818 819 819 820 820 820 820 821 821 821 821
801 801 801 802 802 802 803 803 803 803 803 803 804 804 804 804 804 805 805 805 806 806 807 807 807 807 808 808 808 809 809 809 810 810 810 811 811 811 812 812 812 813 813 814 814 814 814 814 815 815 815 815 816 816 817 817 818 818 819 819 820 820 820 821 821 821 821 821 822
801 801 802 802 802 802 802 803 803 803 803 803 804 804 804 804 805 805 805 806 806 806 807 807 807 808 808 809 809 809 810 810 810 811 811 811 812 812 812 813 813 814 814 815 815 815 815 815 815 816 816 816 816 817 817 817 818 819 819 820 820 821 821 821 821 821 821 821 822
801 801 801 802 802 802 802 803 803 803 803 803 804 804 804 804 805 805 805 806 806 807 807 807 808 808 809 809 810 810 810 811 811 811 812 812 812 813 813 813 814 814 815 815 815 815 815 816 816 816 817 817 817 817 817 818 818 819 819 820 820 820 820 821 821 821 821 822 822
801 801 801 802 802 802 802 803 803 803 803 804 804 804 804 805 805 805 806 806 807 807 807 808 808 809 809 810 810 810 811 811 812 812 812 812 813 813 814 814 815 815 816 816 816 816 816 816 816 817 817 817 817 817 818 818 818 819 819 820 820 820 820 820 821 821 821 822 822
800 801 801 802 802 802 802 803 803 803 803 804 804 804 804 805 805 806 806 807 807 808 808 808 809 809 810 810 811 811 812 812 812 813 813 813 814 814 815 815 815 816 816 816 816 816 816 816 817 817 817 817 817 818 818 818 819 819 819 819 820 820 820 820 821 821 821 822 822
800 801 801 802 802 802 802 803 803 803 803 804 804 804 805 805 806 806 807 807 808 808 808 809 809 810 810 811 811 812 812 812 813 813 814 814 814 815 815 816 816 816 817 817 817 817 817 817 817 817 817 818 818 818 819 819 819 819 819 819 819 820 820 820 821 821 822 822 822
800 801 801 801 802 802 802 803 803 803 804 804 804 805 805 806 806 807 807 808 808 809 809 809 810 810 811 811 812 812 813 813 813 814 814 815 815 815 816 816 817 817 817 817 817 817 817 817 817 818 818 818 819 819 819 819 819 819 819 819 820 820 820 821 821 822 822 822 822
800 800 801 801 802 802 802 802 803 803 804 804 805 805 805 806 806 807 807 808 808 809 809 810 810 811 811 812 812 812 813 814 814 814 815 815 815 816 816 817 817 817 818 817 817 817 818 818 818 818 819 819 819 819 819 819 819 819 819 820 820 820 821 821 821 822 822 822 822
799 800 801 801 802 802 802 802 803 803 804 804 805 805 806 806 807 807 808 808 809 809 810 810 811 811 812 812 813 813 813 814 814 815 815 816 816 816 816 817 817 818 818 818 818 818 818 818 819 819 819 819 819 819 819 819 819 819 820 820 820 821 821 822 822 822 822 822 822
799 800 800 801 801 802 802 802 802 803 804 804 805 805 806 807 807 808 808 809 809 810 810 811 811 812 812 813 813 813 814 814 815 815 816 816 816 816 816 817 818 818 819 819 819 819 819 819 819 819 819 819 819 819 819 819 819 820 820 820 821 821 822 822 822 822 822 822 822
799 799 800 800 801 802 802 802 802 803 803 804 805 805 806 807 807 808 808 809 809 810 810 811 812 812 812 813 813 814 814 815 815 816 816 816 816 817 817 817 818 819 819 819 819 819 819 819 819 819 819 819 819 819 819 820 820 820 821 821 821 822 822 822 822 822 822 822 823
799 799 800 800 801 801 802 802 802 803 803 804 805 806 806 807 807 808 808 809 809 810 811 811 812 812 813 813 813 814 815 815 816 816 817 817 817 817 817 817 818 819 819 820 820 820 820 820 820 820 820 819 819 820 820 820 821 821 821 822 822 822 822 822 822 823 823 823 823
798 799 799 800 800 801 802 802 802 803 803 804 805 806 806 807 807 808 808 809 809 810 811 811 812 812 813 813 814 814 815 816 816 817 817 817 817 818 818 818 818 819 820 820 820 820 820 820 820 820 820 820 820 820 820 821 821 822 822 822 822 822 822 823 823 823 823 823 823
798 799 799 800 800 801 801 802 802 803 803 804 805 806 806 807 808 808 809 809 810 810 811 812 812 813 813 814 814 815 815 816 817 817 817 817 818 818 818 819 819 819 820 821 821 820 820 820 820 820 820 820 820 821 821 821 822 822 822 822 822 822 823 823 823 823 823 823 823
798 798 799 799 800 801 801 802 802 803 804 804 805 806 807 807 808 808 809 809 810 811 811 812 812 813 814 814 815 815 816 816 817 817 817 818 818 818 819 819 819 820 820 821 821 821 820 820 820 820 821 821 821 821 821 822 822 822 822 822 822 822 823 823 823 823 823 823 823